Dati Storici

Data ora Umidita' aria (%) Temperatura aria (°C) Rad globale (W/m²) Gonioanemometro (°) Tacoanemometro (m/s) Pioggia (mm)
05-06-2020 14:50 60.6 % 22.598 -75.333 2.407 0 0
05-06-2020 14:40 61.6 % 22.924 -77.465 1.779 0 0
05-06-2020 14:30 62.4 % 22.622 -77.145 0.908 0 0
05-06-2020 14:20 61.3 % 22.9 -74.77 1.427 0 0
05-06-2020 14:10 61.2 % 23.405 -77.683 1.422 0 0
05-06-2020 14:00 61.1 % 23.3 -77.036 2.625 0 0
05-06-2020 13:50 60.7 % 23.401 -82.174 1.195 0 0
05-06-2020 13:40 59.9 % 22.852 -76.778 2.006 0 0
05-06-2020 13:30 60.2 % 23.491 -80.369 1.668 0 0
05-06-2020 13:20 59.2 % 22.739 -75.683 2.022 0 0
05-06-2020 13:10 60.3 % 22.138 -80.333 0.813 0 0
05-06-2020 13:00 60.9 % 22.566 -80.469 1.431 0 0
05-06-2020 12:50 63.2 % 22.486 -83.272 2.345 0 0
05-06-2020 12:40 62.3 % 22.115 -63.805 1.904 0 0
05-06-2020 12:30 63 % 22.622 -83.537 1.294 0 0
05-06-2020 12:20 62.7 % 22.092 -83.936 1.71 0 0
05-06-2020 12:10 65.4 % 22.393 -83.104 0.95 0 0
05-06-2020 12:00 68.8 % 21.619 -79.279 1.975 0 0
05-06-2020 11:50 73.8 % 20.752 -80.86 0.878 0 0
05-06-2020 11:40 72.7 % 20.07 -80.115 1.638 0 0

I dati sono presentati in modo automatico a scopo informativo. In seguito a verifica i dati possono subire modifiche o essere invalidati e non riportati negli archivi definitivi.